Regional Weather Roundup
Issued by NWS

Home | Current Version | Previous Version | Text Only | Print | Product List | Glossary On
Versions: 1 2 3 4 5 6 7 8 9 10 11 12 13 14 15 16 17 18 19 20 21 22 23 24 25 26 27
000
ASCA42 TJSJ 232210
RWRPR
PUERTO RICO/U.S. VIRGIN ISLANDS HOURLY WEATHER ROUNDUP
NATIONAL WEATHER SERVICE SAN JUAN PR
600 PM AST SUN APR 23 2017

PRZ001>002-007>008-010-232300-
PUERTO RICO

CITY           SKY/WX    TMP DP  RH WIND       PRES   REMARKS
SAN JUAN LMM   PTCLDY    82  73  74 E8        29.91R
AGUADILLA      CLOUDY    79  73  83 CALM      29.91R
CEIBA          CLOUDY   N/A N/A N/A E14       29.93S
$$

VIZ001>002-232300-
U.S. VIRGIN ISLANDS

CITY           SKY/WX    TMP DP  RH WIND       PRES   REMARKS
CHARLOTTE AMA  CLOUDY    81  72  74 E17G24    29.92R
CHRISTIANSTED  PTCLDY    81  73  78 E18       29.92R
$$

HOURLY WEATHER ROUNDUP FOR THE NEWS MEDIA

CITY           SKY/WX    TMP DP  RH WIND       PRES   REMARKS
ORLANDO        PTSUNNY   85  63  47 SE10      29.76F
NEW YORK       CLOUDY    53  43  68 S16       30.11R
NEWARK         PTSUNNY   60  39  45 SE7       30.07R
CHICAGO        MOSUNNY   70  31  23 E10       30.03S
HARTFORD       SUNNY     52  40  63 S15       30.08R
BOSTON         MOSUNNY   51  42  71 E17       30.03S
DALLAS         MOSUNNY   74  39  28 N13G20    30.03F
PHILADELPHIA   CLOUDY    62  47  57 S16       30.07S
LOS ANGELES    MOSUNNY   68  54  60 W18       29.86F
WASHINGTON DC  CLOUDY    58  40  51 S5        30.08S



USA.gov is the U.S. government's official web portal to all federal, state and local government web resources and services.